Weather History for KFNL - March, 2013

Change the Weather History Date:

Saturday, March 30, 2013

  Actual Average (KGXY) Record (KGXY)
Temperature  
Mean Temperature 48 °F -  
Max Temperature 64 °F 57 °F - (-1)
Min Temperature 33 °F 27 °F - (-1)
Degree Days  
Heating Degree Days 16    
Moisture  
Dew Point 33 °F    
Average Humidity 64    
Maximum Humidity 93    
Minimum Humidity 28    
Precipitation  
Precipitation 0.00 in - - ()
Sea Level Pressure  
Sea Level Pressure 30.13 in    
Wind  
Wind Speed 6 mph (WSW)    
Max Wind Speed 29 mph    
Max Gust Speed 43 mph    
Visibility 10 miles    
Events      
Averages and records for this station are not official NWS values.
T = Trace of Precipitation, MM = Missing Value Source: NWS Daily Summary

Daily Weather History Graph

Daily Weather History Graph

Search for Another Location

Airport or City:

Trip Planner

Search our weather history database for the weather conditions in past years. The results will help you decide how hot, cold, wet, or windy it might be!

Date:

Astronomy

Mar. 30, 2013 Rise Set
Actual Time 6:46 AM MDT 7:22 PM MDT
Civil Twilight 6:19 AM MDT 7:50 PM MDT
Nautical Twilight 5:46 AM MDT 8:22 PM MDT
Astronomical Twilight 5:13 AM MDT 8:56 PM MDT
Moon 11:33 PM MDT (3/30) 8:43 AM MDT (3/30)
Length of Visible Light 13h 31m
Length of Day
12h 36m
Waning Gibbous, 86% of the Moon is Illuminated
Mar 30
Waning Gibbous
Apr 2
Last Quarter
Apr 10
New
Apr 18
First Quarter
Apr 25
Full

Hourly Weather History & Observations

Time (MDT) Temp. Windchill Dew Point Humidity Pressure Visibility Wind Dir Wind Speed Gust Speed Precip Events Conditions
12:15 AM 42.8 °F 37.5 °F 28.4 °F 57% 30.13 in 10.0 mi North 9.2 mph - N/A   Clear
12:35 AM 42.8 °F 37.5 °F 28.4 °F 57% 30.13 in 10.0 mi NNE 9.2 mph - N/A   Clear
12:55 AM 39.2 °F 35.9 °F 28.4 °F 65% 30.13 in 10.0 mi West 4.6 mph - N/A   Clear
1:15 AM 41.0 °F - 30.2 °F 65% 30.13 in 10.0 mi Calm Calm - N/A   Clear
1:35 AM 39.2 °F - 30.2 °F 70% 30.13 in 10.0 mi Calm Calm - N/A   Clear
1:55 AM 37.4 °F 33.8 °F 28.4 °F 70% 30.14 in 10.0 mi SW 4.6 mph - N/A   Clear
2:15 AM 39.2 °F - 30.2 °F 70% 30.13 in 10.0 mi Calm Calm - N/A   Clear
2:35 AM 41.0 °F - 30.2 °F 65% 30.12 in 10.0 mi Calm Calm - N/A   Clear
2:55 AM 42.8 °F - 30.2 °F 61% 30.12 in 10.0 mi Calm Calm - N/A   Clear
3:35 AM 41.0 °F - 28.4 °F 61% 30.12 in 10.0 mi Calm Calm - N/A   Clear
3:55 AM 39.2 °F - 30.2 °F 70% 30.11 in 10.0 mi Calm Calm - N/A   Clear
4:15 AM 37.4 °F - 30.2 °F 75% 30.12 in 10.0 mi Calm Calm - N/A   Clear
4:35 AM 37.4 °F - 30.2 °F 75% 30.12 in 10.0 mi Calm Calm - N/A   Clear
4:55 AM 39.2 °F - 30.2 °F 70% 30.12 in 10.0 mi Calm Calm - N/A   Clear
5:15 AM 37.4 °F 34.9 °F 28.4 °F 70% 30.12 in 10.0 mi South 3.5 mph - N/A   Clear
5:35 AM 37.4 °F 33.8 °F 30.2 °F 75% 30.12 in 10.0 mi South 4.6 mph - N/A   Clear
5:55 AM 35.6 °F 32.8 °F 28.4 °F 75% 30.12 in 10.0 mi SSE 3.5 mph - N/A   Clear
6:15 AM 35.6 °F 32.8 °F 28.4 °F 75% 30.13 in 10.0 mi South 3.5 mph - N/A   Clear
6:35 AM 37.4 °F - 28.4 °F 70% 30.13 in 10.0 mi Calm Calm - N/A   Clear
6:55 AM 33.8 °F - 26.6 °F 75% 30.12 in 10.0 mi Calm Calm - N/A   Clear
7:15 AM 33.8 °F - 26.6 °F 75% 30.13 in 10.0 mi Calm Calm - N/A   Clear
7:35 AM 37.4 °F 33.8 °F 28.4 °F 70% 30.14 in 10.0 mi SSW 4.6 mph - N/A   Clear
7:55 AM 37.4 °F 32.8 °F 32.0 °F 81% 30.13 in 10.0 mi SSE 5.8 mph - N/A   Clear
8:15 AM 39.2 °F 35.9 °F 33.8 °F 81% 30.14 in 10.0 mi SSE 4.6 mph - N/A   Clear
8:35 AM 42.8 °F 40.1 °F 33.8 °F 70% 30.14 in 10.0 mi South 4.6 mph - N/A   Clear
9:15 AM 48.2 °F - 33.8 °F 58% 30.13 in 10.0 mi SSW 8.1 mph - N/A   Clear
9:35 AM 50.0 °F - 33.8 °F 54% 30.13 in 10.0 mi SSW 6.9 mph - N/A   Clear
9:55 AM 53.6 °F - 33.8 °F 47% 30.12 in 10.0 mi South 6.9 mph - N/A   Clear
10:15 AM 53.6 °F - 30.2 °F 41% 30.12 in 10.0 mi South 9.2 mph - N/A   Clear
10:35 AM 55.4 °F - 32.0 °F 41% 30.11 in 10.0 mi South 10.4 mph - N/A   Clear
10:55 AM 57.2 °F - 33.8 °F 41% 30.11 in 10.0 mi ESE 4.6 mph - N/A   Clear
11:15 AM 59.0 °F - 35.6 °F 42% 30.10 in 10.0 mi ESE 8.1 mph - N/A   Partly Cloudy
11:35 AM 59.0 °F - 35.6 °F 42% 30.10 in 10.0 mi ESE 10.4 mph - N/A   Scattered Clouds
11:55 AM 60.8 °F - 35.6 °F 39% 30.09 in 10.0 mi SSE 6.9 mph - N/A   Partly Cloudy
12:15 PM 60.8 °F - 33.8 °F 36% 30.08 in 10.0 mi SE 11.5 mph - N/A   Partly Cloudy
12:35 PM 62.6 °F - 33.8 °F 34% 30.07 in 10.0 mi SE 4.6 mph 17.3 mph N/A   Partly Cloudy
12:55 PM 62.6 °F - 33.8 °F 34% 30.06 in 10.0 mi South 4.6 mph - N/A   Partly Cloudy
1:15 PM 60.8 °F - 30.2 °F 31% 30.06 in 10.0 mi West 6.9 mph - N/A   Scattered Clouds
1:35 PM 60.8 °F - 28.4 °F 29% 30.06 in 10.0 mi Calm Calm - N/A   Mostly Cloudy
1:55 PM 60.8 °F - 30.2 °F 31% 30.06 in 10.0 mi WSW 3.5 mph - N/A   Mostly Cloudy
2:15 PM 62.6 °F - 30.2 °F 30% 30.04 in 10.0 mi SSW 6.9 mph - N/A   Mostly Cloudy
2:35 PM 62.6 °F - 30.2 °F 30% 30.04 in 10.0 mi WNW 6.9 mph - N/A   Scattered Clouds
2:55 PM 64.4 °F - 30.2 °F 28% 30.03 in 10.0 mi WSW 12.7 mph 18.4 mph N/A   Mostly Cloudy
3:15 PM 62.6 °F - 30.2 °F 30% 30.04 in 10.0 mi NE 12.7 mph 31.1 mph N/A   Mostly Cloudy
3:35 PM 59.0 °F - 30.2 °F 34% 30.06 in 10.0 mi NW 16.1 mph 23.0 mph N/A   Overcast
3:55 PM 53.6 °F - 33.8 °F 47% 30.08 in 10.0 mi WNW 28.8 mph 36.8 mph N/A   Overcast
4:15 PM 55.4 °F - 30.2 °F 38% 30.08 in 10.0 mi North 23.0 mph 29.9 mph N/A   Overcast
4:35 PM 53.6 °F - 35.6 °F 51% 30.09 in 10.0 mi NNE 24.2 mph 42.6 mph N/A   Overcast
4:55 PM 51.8 °F - 37.4 °F 58% 30.11 in 10.0 mi NNE 18.4 mph 25.3 mph N/A   Mostly Cloudy
5:15 PM 51.8 °F - 35.6 °F 54% 30.11 in 10.0 mi NNE 12.7 mph 29.9 mph N/A   Mostly Cloudy
5:35 PM 46.4 °F 39.8 °F 39.2 °F 76% 30.14 in 10.0 mi NNE 16.1 mph 26.5 mph N/A   Overcast
5:55 PM 46.4 °F 39.2 °F 39.2 °F 76% 30.14 in 10.0 mi NNE 18.4 mph 21.9 mph N/A   Overcast
6:15 PM 44.6 °F 37.2 °F 39.2 °F 81% 30.17 in 10.0 mi North 17.3 mph - N/A   Overcast
6:35 PM 44.6 °F 37.8 °F 39.2 °F 81% 30.18 in 10.0 mi North 15.0 mph - N/A   Overcast
6:55 PM 44.6 °F 40.2 °F 39.2 °F 81% 30.18 in 10.0 mi North 8.1 mph - N/A   Overcast
7:15 PM 44.6 °F 40.7 °F 39.2 °F 81% 30.18 in 10.0 mi North 6.9 mph - N/A   Mostly Cloudy
7:35 PM 42.8 °F 38.0 °F 37.4 °F 81% 30.19 in 10.0 mi NNW 8.1 mph - N/A   Partly Cloudy
7:55 PM 41.0 °F 38.0 °F 37.4 °F 87% 30.19 in 10.0 mi NNW 4.6 mph - N/A   Partly Cloudy
8:15 PM 41.0 °F 38.0 °F 37.4 °F 87% 30.20 in 10.0 mi NNW 4.6 mph - N/A   Clear
8:35 PM 41.0 °F 38.0 °F 37.4 °F 87% 30.20 in 10.0 mi North 4.6 mph - N/A   Clear
8:55 PM 39.2 °F 35.9 °F 35.6 °F 87% 30.21 in 10.0 mi NNW 4.6 mph - N/A   Clear
9:15 PM 37.4 °F 33.8 °F 35.6 °F 93% 30.21 in 10.0 mi NNW 4.6 mph - N/A   Clear
9:35 PM 39.2 °F 34.2 °F 35.6 °F 87% 30.22 in 10.0 mi North 6.9 mph - N/A   Clear
9:55 PM 39.2 °F 34.2 °F 35.6 °F 87% 30.22 in 10.0 mi North 6.9 mph - N/A   Clear
10:15 PM 39.2 °F 37.0 °F 37.4 °F 93% 30.23 in 10.0 mi North 3.5 mph - N/A   Clear
10:35 PM 37.4 °F - 35.6 °F 93% 30.23 in 10.0 mi Calm Calm - N/A   Clear
10:55 PM 39.2 °F 37.0 °F 37.4 °F 93% 30.23 in 10.0 mi South 3.5 mph - N/A   Clear
11:15 PM 37.4 °F 33.8 °F 33.8 °F 87% 30.23 in 10.0 mi SSW 4.6 mph - N/A   Clear
11:35 PM 39.2 °F 35.9 °F 35.6 °F 87% 30.23 in 10.0 mi South 4.6 mph - N/A   Clear
11:55 PM 37.4 °F 33.8 °F 33.8 °F 87% 30.23 in 10.0 mi South 4.6 mph - N/A   Clear